AirNav   Air Wisconsin pilot careers
 
 1439 users online  

23Y Murdock Municipal Airport
Murdock, Minnesota, USA

GOING TO MURDOCK?


FAA INFORMATION EFFECTIVE 26 APRIL 2018

Location

FAA Identifier: 23Y
Lat/Long: 45-13-19.8570N / 095-24-04.0890W
45-13.330950N / 095-24.068150W
45.2221825 / -95.4011358
(estimated)
Elevation: 1082 ft. / 330 m (estimated)
Variation: 05E (1985)
Time zone: UTC -5 (UTC -6 during Standard Time)
Zip code: 56271

Airport Operations

Airport use: Open to the public
Activation date: 04/1972
Control tower: no
ARTCC: MINNEAPOLIS CENTER
FSS: PRINCETON FLIGHT SERVICE STATION
NOTAMs facility: PNM (NOTAM-D service available)
Attendance: UNATNDD
Wind indicator: yes
Segmented circle: no

Airport Communications

CTAF: 122.9
WX AWOS-3 at BBB (12 nm NW): 118.45 (320-843-3242)
WX AWOS-3 at BDH (13 nm SE): 113.7 (320-235-8287)

Nearby radio navigation aids

VOR radial/distance  VOR name  Freq  Var
BDHr294/13.2WILLMAR VOR/DME113.7004E
MVEr036/19.9MONTEVIDEO VOR/DME111.6005E
MOXr126/31.6MORRIS VOR/DME109.6005E

 
NDB name  Hdg/Dist  Freq  Var  ID
BENSON116/12.323905EBBB -... -... -...
GLENWOOD185/25.634603EGHW --. .... .--
APPLETON086/25.735605EAQP .- --.- .--.
DAWSON/MADISON064/35.934103EDXX -.. -..- -..-

Airport Services

Parking: tiedowns
Airframe service: NONE
Powerplant service: NONE
Bottled oxygen: NONE
Bulk oxygen: NONE

Runway Information

Runway 12/30

Dimensions: 3415 x 150 ft. / 1041 x 46 m
Surface: turf, in good condition
Runway edge markings: RY 12/30 MKD WITH CONES.
RUNWAY 12  RUNWAY 30
Latitude: 45-13.463667N45-13.214833N
Longitude: 095-24.416333W095-23.703167W
Elevation: 1080.0 ft.1080.0 ft.
Gradient: 0.1%0.1%
Traffic pattern: leftleft

Airport Ownership and Management from official FAA records

Ownership: Publicly-owned
Owner: CITY OF MURDOCK
300 FREDERICK ST., P.O. BOX 130
MURDOCK, MN 56271
Phone 320-875-2112
Manager: ADAM SIMMONDS
300 FREDERICK ST, P.O. BOX 130
MURDOCK, MN 56271
Phone 320-875-4841

Airport Operational Statistics

Aircraft operations: avg 42/month *
80% local general aviation
20% transient general aviation
* for 12-month period ending 30 June 2015

Additional Remarks

ARPT NOT PLOWED WINTER MONTHS.

Instrument Procedures

There are no published instrument procedures at 23Y.

Some nearby airports with instrument procedures:

KBBB - Benson Municipal Airport (12 nm NW)
KBDH - Willmar Municipal Airport-John L Rice Fiel (13 nm SE)
KMVE - Montevideo-Chippewa County Airport (20 nm SW)
KAQP - Appleton Municipal Airport (26 nm W)
KGHW - Glenwood Municipal Airport (26 nm N)
 
Loc | Ops | Rwys | IFR | FBO | Links
Com | Nav | Svcs | Stats | Notes

AirNav Hotels Sweepstakes
 
Area around 23Y (Murdock Municipal Airport)
 
Road maps at: MapQuest Bing Google
 
Aerial photo
No photo
 
Sectional chart

 
Airport distance calculator
Flying to Murdock Municipal Airport? Find the distance to fly.

From to 23Y

Sunrise and sunset
Times for 26-Apr-2018
 Local
(UTC-5)
 Zulu
(UTC)
Morning civil twilight05:4710:47
Sunrise06:1911:19
Sunset20:2001:20
Evening civil twilight20:5201:52

Current date and time
Zulu (UTC)  26-Apr-2018 14:33:36
Local (UTC-5)  26-Apr-2018 09:33:36
 
METAR
KBBB 
12nm NW 
261415Z AUTO 03015G20KT 10SM CLR 11/03 A2993 RMK AO2
KBDH 
13nm SE 
261415Z AUTO 33013KT 10SM CLR 07/02 A2990 RMK AO2
KMVE 
20nm SW 
261415Z AUTO 02020G23KT 10SM CLR 09/04 A2991 RMK AO2
TAF
KAXN 
39nm N 
261120Z 2612/2712 30012KT P6SM BKN090 FM261500 35018G26KT P6SM FEW250 FM270100 32010KT P6SM SKC FM270400 24005KT P6SM FEW250 FM270900 25010KT P6SM SCT100 WS020/29035KT
KRWF 
43nm S 
261120Z 2612/2712 21008KT P6SM BKN250 FM261400 28012KT P6SM BKN250 FM261500 31013G22KT P6SM OVC250 FM261600 35018G26KT P6SM BKN250 FM270200 32005KT P6SM SKC
NOTAMs
Click for the latest NOTAMs
NOTAMs are issued by the DoD/FAA and will open in a separate window not controlled by AirNav.

 

 
 

Would you like to see your business listed on this page?

 If your business provides an interesting product or service to pilots, flight crews, aircraft, or users of the Murdock Municipal Airport, you should consider listing it here.  To start the listing process, click on the button below
 
Add a business
 

Other Pages about Murdock Municipal Airport

PDF page(s) from the Minnesota Airport Directory
 
Update a link
 
Copyright © AirNav, LLC. All rights reserved. Privacy Policy  Contact